Home > Weather > Karaganda > Past weeks

Flag for Kazakhstan Past Weather in Karaganda, Kazakhstan — Yesterday and Last 2 Weeks

Now
84 °F

Scattered clouds.


Feels Like: 82 °F
Forecast: 58 / 78 °F
Wind: 6 mph from Northwest

Location: Karaganda

Current Time: Aug 27, 2016 at 5:50:54 PM

Latest Report: Aug 27, 2016 at 5:30 PM


Visibility: N/A

Pressure: 29.98 "Hg (28.16 "Hg at 555m altitude)

Humidity: 25%

Dew Point: 45 °F

Location of KaragandaLocation

Past Weather in Karaganda — Graph

°F

Karaganda Temperature Yesterday

Maximum temperature yesterday: 81 °F (at 3:30 PM)
Minimum temperature yesterday: 45 °F (at 5:30 AM)
Average temperature yesterday: 62 °F

High & Low Weather Summary for the Past Weeks

 TemperatureHumidityPressure
High84 °F (Aug 27, 3:00 PM)100% (Aug 13, 2:30 AM)30.39 "Hg (Aug 13, 2:30 AM)
Low34 °F (Aug 23, 5:00 AM)27% (Aug 27, 3:00 PM)29.98 "Hg (Aug 16, 5:00 PM)
Average60 °F67%30.14 "Hg
* Reported Aug 12 4:00 PM — Aug 27 4:30 PM, Karaganda, Weather by CustomWeather, © 2016

Note: Actual official high and low records may vary slightly from our data, if they occured in-between our weather recording intervals... More about our weather records

Advertising

Karaganda Weather History for the Previous 24 Hours

Scroll right to see more
 ConditionsComfort  
Time TempWeatherWind HumidityBarometerVisibility
4:30 PM
Sat, Aug 27
84 °FPassing clouds.8 mph29%30.01 "HgN/A
4:00 PM84 °FSunny.10 mph29%30.01 "Hg10 mi
3:30 PM84 °FSunny.13 mph27%30.01 "Hg10 mi
3:00 PM84 °FPassing clouds.15 mph27%30.01 "HgN/A
2:30 PM82 °FPassing clouds.13 mph28%30.01 "HgN/A
2:00 PM82 °FPassing clouds.13 mph32%30.01 "HgN/A
1:30 PM81 °FSunny.13 mph32%30.04 "Hg10 mi
1:00 PM81 °FPassing clouds.10 mph32%30.04 "HgN/A
12:30 PM81 °FPassing clouds.10 mph32%30.04 "HgN/A
12:00 PM79 °FPassing clouds.8 mph39%30.04 "HgN/A
11:30 AM77 °FPassing clouds.8 mph42%30.07 "HgN/A
11:00 AM75 °FPassing clouds.6 mph41%30.07 "HgN/A
10:30 AM73 °FPassing clouds.6 mph50%30.07 "HgN/A
10:00 AM72 °FPassing clouds.6 mph53%30.07 "HgN/A
9:30 AM68 °FSunny.8 mph60%30.07 "Hg10 mi
9:00 AM66 °FSunny.8 mph60%30.07 "Hg10 mi
8:30 AM63 °FSunny.1 mph68%30.07 "Hg10 mi
8:00 AM57 °FSunny.No wind82%30.07 "Hg10 mi
7:30 AM50 °FSunny.No wind88%30.07 "Hg10 mi
7:00 AM45 °FClear.3 mph100%30.07 "Hg10 mi
6:30 AM45 °FClear.3 mph93%30.07 "Hg10 mi
6:00 AM45 °FClear.1 mph93%30.07 "Hg10 mi
5:30 AM45 °FClear.1 mph93%30.07 "Hg10 mi
5:00 AM46 °FClear.1 mph87%30.07 "Hg10 mi
4:30 AM45 °FClear.1 mph93%30.04 "Hg10 mi
4:00 AM45 °FClear.No wind93%30.04 "Hg10 mi
3:30 AM45 °FClear.1 mph93%30.04 "Hg10 mi
3:00 AM45 °FClear.1 mph93%30.04 "Hg10 mi
2:30 AM46 °FClear.1 mph93%30.04 "Hg10 mi
2:00 AM48 °FClear.1 mph87%30.04 "Hg10 mi
1:30 AM50 °FClear.3 mph88%30.04 "Hg10 mi
1:00 AM50 °FClear.3 mph94%30.04 "Hg10 mi
12:30 AM50 °FClear.6 mph94%30.04 "Hg10 mi
12:00 AM52 °FClear.3 mph88%30.04 "Hg10 mi
11:30 PM
Fri, Aug 26
52 °FClear.3 mph88%30.07 "Hg10 mi
11:00 PM54 °FClear.3 mph88%30.07 "Hg10 mi
10:30 PM57 °FPassing clouds.6 mph77%30.07 "HgN/A
10:00 PM61 °FMostly cloudy.3 mph72%30.07 "HgN/A
9:30 PM63 °FMostly cloudy.6 mph68%30.09 "HgN/A
9:00 PM63 °FMore clouds than sun.3 mph64%30.07 "HgN/A
8:30 PM63 °FMore clouds than sun.3 mph59%30.07 "HgN/A
8:00 PM66 °FMore clouds than sun.6 mph52%30.04 "HgN/A
7:30 PM68 °FMostly cloudy.3 mph53%30.07 "HgN/A
7:00 PM68 °FMostly cloudy.8 mph53%30.04 "HgN/A
6:30 PM70 °FMostly cloudy.10 mph50%30.07 "HgN/A
6:00 PM70 °FThundershowers. Mostly cloudy.17 mph50%30.04 "HgN/A
5:30 PM73 °FThundershowers. Mostly cloudy.20 mph44%30.04 "HgN/A
5:00 PM77 °FThundershowers. Partly sunny.8 mph39%30.01 "HgN/A
Weather by CustomWeather, © 2016

See weather overviewHow to use our weather pages